FREGAT DEB, 45648

Orbit data source: Space-Track

FREGAT DEB, 45648 is space debris in LEO originally from a launch on Mon, 18 Jul 2011 UTC launched from the Tyuratam Missile And Space Complex (TTMTR). Debris objects in space refer to the collection of defunct objects orbiting the Earth. Examples of debris include non-operational satellites, rocket bodies, and fragments generated from explosions, collisions, or faulty payload assembly.

Loading next visibility...
Identifier
45648, 2011-037AQ
Orbit
LEO
Country
Flag of CISCIS
Related business
Manufacturer
Lavochkin
Mission
Spacecraft
Bus & Motor
Unknown
Mass
Unknown
Launch date (UTC)
2011-07-18 (14 years ago)
Launch vehicle
Unknown
Launch site
Tyuratam Missile And Space Complex (TTMTR)
Object type
Payload
Rocket body
Debris
Shape & HBR
Unknown shape, 0.1 m
Radar Cross Section
Small (<0.1 m²)

Expand to show TLE details & history
Last TLE update: 12 hours ago

TLE from 12 hours ago
0 FREGAT DEB
1 45648U 11037AQ  25297.52830315  .00080862  00000-0  39718-2 0  9995
2 45648  51.4023  19.6307 1006029  84.1166 287.3324 13.44324687237973
Epoch: 2025-10-24T12:40Z
TLE epoch observation values (Epoch: 2025-10-24T12:40:45.392Z)
Latitude
-0.00001°
Longitude
156.26964°
Altitude
941.599 km
Speed
7.457 km/s
True Right ascension
01h 18m 31s
True Declination
0° 00' 00"
Sunlit
Object was in full shadow at epoch
Visualization orbit readout
Latitude
Unknown
Longitude
Unknown
Altitude
Unknown
Speed
Unknown
Apparent Right ascension
Unknown
Apparent Declination
Unknown
Sunlit
N/A
Visualization observer readout
Local Sidereal Time
20:21:16
Azimuth
Unknown
Elevation
Unknown
Doppler factor
Unknown
Orbital elements
Apogee altitude
1,845.409 km
Perigee altitude
342.028 km
Semi-major axis
7,471.856 km
Eccentricity
0.1006
Inclination
51.4023°
RAAN
19.6307°
Arg. of periapsis
84.1166°
True anomaly
275.97516°
Mean anomaly
287.3324°
Eccentric anomaly
281.68779°
Mean motion
3.36047 °/min
Orbital period
107.13 mins
BSTAR
0.0039718
Loading maneuver chart data...
Computing Atmospheric mass density...
Loading historical data...
Loading historical data...
Loading historical data...
Loading historical data...
Loading historical data...
Loading historical data...
Loading historical data...

Documentation

Showing up to 5 results
|